Regional Weather Roundup
Issued by NWS Memphis, TN

Current Version | Previous Version | Text Only | Print | Product List | Glossary On
Versions: 1 2 3 4 5 6 7 8 9 10 11 12 13 14 15 16 17 18 19 20 21 22 23 24 25 26 27 28 29 30 31 32 33 34 35 36 37 38 39 40 41 42 43 44 45 46 47 48 49 50
000
ASUS44 KMEG 301410
RWRMEG
MEMPHIS CWA HOURLY WEATHER ROUNDUP
NATIONAL WEATHER SERVICE MEMPHIS TN
900 AM CDT THU JUL 30 2015

...WEST TENNESSEE...

CITY           SKY/WX    TMP DP  RH WIND       PRES   REMARKS
MEMPHIS INTL   SUNNY     84  65  52 NE18      30.09R
NWS MEMPHIS      N/A     81 N/A N/A MISG        N/A
JACKSON        PTSUNNY   81  64  56 NE10      30.11R
DYERSBURG        N/A    N/A N/A N/A MISG        N/A
PARIS          SUNNY     75  63  64 NE9       30.13S


...EASTERN ARKANSAS...

CITY           SKY/WX    TMP DP  RH WIND       PRES   REMARKS
JONESBORO      SUNNY     78  64  61 NE13      30.14R
WEST MEMPHIS   SUNNY     82  67  60 NE16      30.09R
BATESVILLE     MOSUNNY   79  64  61 N3        30.16R
NEWPORT        MOSUNNY   79  67  66 NE13      30.15R
WALNUT RIDGE   SUNNY     79  63  57 NE10      30.15R
BLYTHEVILLE    SUNNY     79  67  66 NE12      30.13R
SEARCY         SUNNY     82  65  56 NE15G21   30.14R
STUTTGART      SUNNY     82  68  61 NE15      30.10R
PINE BLUFF     MOSUNNY   83  75  77 N10       30.10R HX  90
MONTICELLO     SUNNY     86  78  77 NE12G17   30.07R HX  98


...NORTH MISSISSIPPI...

CITY           SKY/WX    TMP DP  RH WIND       PRES   REMARKS
TUPELO         MOSUNNY   82  75  79 NE15      30.06R
OLIVE BRANCH   MOSUNNY   81  73  78 NE12      30.10R
TUNICA         SUNNY     82  73  74 N12G20    30.08S
CLARKSDALE     CLOUDY    82  81  94 N13G18    30.08R HX  95
CORINTH        SUNNY     81  66  61 N12       30.08R
GREENWOOD      SUNNY     85  76  74 N7        30.04R HX  94
COLUMBUS       SUNNY     83  76  79 N9        30.03S HX  91
STARKVILLE     FAIR      81  75  83 N5        30.04S


...SOUTHEAST MISSOURI...

CITY           SKY/WX    TMP DP  RH WIND       PRES   REMARKS
WEST PLAINS    SUNNY     76  62  62 NE8       30.22R
POPLAR BLUFF   SUNNY     77  63  61 NE9       30.14R


...NORTHWEST ALABAMA...

CITY           SKY/WX    TMP DP  RH WIND       PRES   REMARKS
MUSCLE SHOALS  PTSUNNY   82  74  76 VRB7      30.08R


...MIDDLE TENNESSEE...

CITY           SKY/WX    TMP DP  RH WIND       PRES   REMARKS
NASHVILLE      MOSUNNY   82  65  56 NE12      30.10R
CLARKSVILLE    SUNNY     78  65  63 N8        30.12R
COLUMBIA       PTSUNNY   81  72  74 NE7       30.08S


...WESTERN KENTUCKY...

CITY           SKY/WX    TMP DP  RH WIND       PRES   REMARKS
PADUCAH        SUNNY     77  63  61 NE10      30.12S
FORT CAMPBELL  SUNNY     77  66  67 N8        30.12R


...CENTRAL ARKANSAS...

CITY           SKY/WX    TMP DP  RH WIND       PRES   REMARKS
LITTLE ROCK    SUNNY     84  68  58 NE12      30.11R


SKY/WX REPORTED AS FAIR MEANS FEW OR NO CLOUDS BELOW
12 THOUSAND FEET.



USA.gov is the U.S. government's official web portal to all federal, state and local government web resources and services.